(66829) = 2001 DL40 = 1999 UY42

Discovered at Catalina on 1999-10-28 by CSS.

Orbit

Orbit type: Main Belt

Note: WebGL enabled browser required.

epoch2024-03-31.0
epoch JD2460400.5
perihelion date2021-08-03.59593
perihelion JD2459430.09593
argument of perihelion (°)18.58133
ascending node (°)281.75382
inclination (°)7.45465
eccentricity0.0685525
perihelion distance (AU)2.5621114
Tisserand w.r.t. Jupiter3.3
ΔV w.r.t. Earth (km/sec)10.3
semimajor axis (AU)2.7506772
mean anomaly (°)209.65103
mean daily motion (°/day)0.21604510
aphelion distance (AU)2.939
period (years)4.56
P-vector [x]0.50242030
P-vector [y]-0.80881420
P-vector [z]-0.30560341
Q-vector [x]0.85524237
Q-vector [y]0.41296553
Q-vector [z]0.31308141
absolute magnitude14.88
phase slope0.15
uncertainty0
referenceMPEC 2024-E73
observations used1399
oppositions19
arc length (days)8920
first opposition used1999
last opposition used2024
residual rms (arc-secs)0.65
perturbers coarse indicatorM-v
perturbers precise indicator003Ek
first observation date used1999-10-03.0
last observation date used2024-03-05.0
computer nameMPCLINUX
JD of orbit computation2456966.852609
perihelion JD uncertainty (days)2.2777E-04
argument of perihelion uncertainty (°)6.4123E-05
ascending node uncertainty (°)4.4906E-05
inclination uncertainty (°)5.4303E-06
eccentricity uncertainty 5.3933E-08
perihelion distance uncertainty (AU)1.4907E-07
Minimum Orbit Intersection Distances (in AU)
for orbit epoch: 2460400.5, reference: E2024-E73
Mercury2.11525
Venus1.837
Earth1.54728
Mars1.12402
Jupiter2.20816
Saturn6.12389
Uranus15.5703
Neptune27.0472

Observations

1421 total observations over interval: 1999 10 03.30895 – 2024 03 05.156378
These data are available for download (format description).

Date (UT) J2000 RA J2000 Dec Magn Location Ref
1999 10 03.30895 01 58 50.80 +23 48 41.1 19.2   704 – Lincoln Laboratory ETS, New Mexico MPS 15509
1999 10 03.32012 01 58 50.17 +23 48 39.6 19.2   704 – Lincoln Laboratory ETS, New Mexico MPS 15509
1999 10 03.33128 01 58 49.62 +23 48 38.3 19.2   704 – Lincoln Laboratory ETS, New Mexico MPS 15509
1999 10 12.20816 01 51 45.67 +23 20 13.3 18.1   704 – Lincoln Laboratory ETS, New Mexico MPS 15509
1999 10 12.22243 01 51 44.91 +23 20 10.7 18.6   704 – Lincoln Laboratory ETS, New Mexico MPS 15509
1999 10 12.23802 01 51 44.08 +23 20 06.3 18.4   704 – Lincoln Laboratory ETS, New Mexico MPS 15509
1999 10 12.25194 01 51 43.34 +23 20 03.2 18.9   704 – Lincoln Laboratory ETS, New Mexico MPS 15509
1999 10 12.26586 01 51 42.61 +23 19 59.5 18.3   704 – Lincoln Laboratory ETS, New Mexico MPS 15509
1999 10 28.26103 01 37 41.29 +21 55 50.9 18.5 R 703 – Catalina Sky Survey MPS 13962
1999 10 28.27303 01 37 40.56 +21 55 46.9 18.7 R 703 – Catalina Sky Survey MPS 13962
1999 10 28.28509 01 37 40.02 +21 55 43.1 18.4 R 703 – Catalina Sky Survey MPS 13962
1999 10 28.29708 01 37 39.24 +21 55 38.1 18.3 R 703 – Catalina Sky Survey MPS 13962
1999 11 03.24069 01 32 44.66 +21 17 10.1 18.6   704 – Lincoln Laboratory ETS, New Mexico MPS 13962
1999 11 03.25701 01 32 43.83 +21 17 04.0 19.4   704 – Lincoln Laboratory ETS, New Mexico MPS 13962
1999 11 03.27334 01 32 43.06 +21 16 57.1 19.3   704 – Lincoln Laboratory ETS, New Mexico MPS 13962
1999 11 03.28969 01 32 42.24 +21 16 50.5 19.1   704 – Lincoln Laboratory ETS, New Mexico MPS 13962
1999 11 03.30628 01 32 41.45 +21 16 43.6 19.3   704 – Lincoln Laboratory ETS, New Mexico MPS 13962
1999 12 08.26705 01 17 59.60 +17 48 32.9 18.9 R 703 – Catalina Sky Survey MPS 15509
1999 12 08.27912 01 17 59.54 +17 48 30.7 19.2 R 703 – Catalina Sky Survey MPS 15509
1999 12 08.29125 01 17 59.58 +17 48 27.7 19.0 R 703 – Catalina Sky Survey MPS 15509
1999 12 08.30336 01 17 59.56 +17 48 22.6 18.4 R 703 – Catalina Sky Survey MPS 15509
2000 12 30.40016 08 29 44.48 +16 05 33.8 19.9   704 – Lincoln Laboratory ETS, New Mexico MPS 27049
2000 12 30.41516 08 29 43.77 +16 05 33.4 19.4   704 – Lincoln Laboratory ETS, New Mexico MPS 27049
2000 12 30.43012 08 29 43.12 +16 05 33.0 19.4   704 – Lincoln Laboratory ETS, New Mexico MPS 27049
2001 01 15.31358 08 15 58.47 +16 12 30.4 18.3   704 – Lincoln Laboratory ETS, New Mexico MPS 27049
2001 01 15.33041 08 15 57.50 +16 12 31.3 18.9   704 – Lincoln Laboratory ETS, New Mexico MPS 27049
2001 01 15.34646 08 15 56.55 +16 12 32.3 18.7   704 – Lincoln Laboratory ETS, New Mexico MPS 27049
2001 01 15.36355 08 15 55.52 +16 12 32.3 18.6   704 – Lincoln Laboratory ETS, New Mexico MPS 27049
2001 01 15.38491 08 15 54.29 +16 12 34.2 18.5   704 – Lincoln Laboratory ETS, New Mexico MPS 27049
2001 02 19.28361 07 46 14.80 +16 42 42.0 18.7   704 – Lincoln Laboratory ETS, New Mexico MPS 27049
2001 02 19.30508 07 46 13.97 +16 42 43.1 19.0   704 – Lincoln Laboratory ETS, New Mexico MPS 27049
2001 02 19.31925 07 46 13.47 +16 42 42.9 19.6   704 – Lincoln Laboratory ETS, New Mexico MPS 27049
2001 02 20.22111 07 45 43.48 +16 43 14.2 18.7   704 – Lincoln Laboratory ETS, New Mexico MPS 27049
2001 02 20.23512 07 45 43.01 +16 43 15.1 18.9   704 – Lincoln Laboratory ETS, New Mexico MPS 27049
2001 02 20.24922 07 45 42.47 +16 43 15.8 19.0   704 – Lincoln Laboratory ETS, New Mexico MPS 27049
2001 02 20.27721 07 45 41.47 +16 43 16.1 18.8   704 – Lincoln Laboratory ETS, New Mexico MPS 27049
2002 03 25.49844 14 06 08.37 -24 08 32.6 19.4   644 – Palomar Mountain/NEAT MPS 51680
2002 03 25.50881 14 06 08.00 -24 08 32.2 19.4   644 – Palomar Mountain/NEAT MPS 51680
2002 03 25.51932 14 06 07.66 -24 08 31.8 19.6   644 – Palomar Mountain/NEAT MPS 51680
2002 05 09.21395 13 30 59.03 -20 55 36.5 19.0   704 – Lincoln Laboratory ETS, New Mexico MPS 54393
2002 05 09.22625 13 30 58.54 -20 55 32.7 19.0   704 – Lincoln Laboratory ETS, New Mexico MPS 54393
2002 05 09.23854 13 30 57.98 -20 55 26.8 19.3   704 – Lincoln Laboratory ETS, New Mexico MPS 54393
2002 05 09.25093 13 30 57.48 -20 55 21.8 19.3   704 – Lincoln Laboratory ETS, New Mexico MPS 54393
2002 05 09.26323 13 30 56.93 -20 55 17.0 19.3   704 – Lincoln Laboratory ETS, New Mexico MPS 54393
2002 05 15.21725 13 27 11.18 -20 16 18.6 19.5   644 – Palomar Mountain/NEAT MPS 54393
2002 05 15.23814 13 27 10.44 -20 16 10.0 19.3   644 – Palomar Mountain/NEAT MPS 54393
2002 05 15.25902 13 27 09.67 -20 16 02.1 20.0   644 – Palomar Mountain/NEAT MPS 54393
2002 05 17.20777 13 26 05.68 -20 03 30.0 19.1   644 – Palomar Mountain/NEAT MPS 54393
2002 05 17.22864 13 26 05.00 -20 03 22.0 19.1   644 – Palomar Mountain/NEAT MPS 54393
2002 05 17.24861 13 26 04.33 -20 03 14.4 18.9   644 – Palomar Mountain/NEAT MPS 54393
2003 06 28.34590 22 18 30.50 -04 35 20.3 19.0   704 – Lincoln Laboratory ETS, New Mexico MPS 81868
2003 06 28.36551 22 18 30.52 -04 35 14.0 19.3   704 – Lincoln Laboratory ETS, New Mexico MPS 81868
2003 06 28.38515 22 18 30.54 -04 35 07.8 19.1   704 – Lincoln Laboratory ETS, New Mexico MPS 81868
2003 08 01.33648 22 07 02.33 -03 11 19.7 18.7   704 – Lincoln Laboratory ETS, New Mexico MPS 82613
2003 08 01.34693 22 07 01.77 -03 11 19.7 19.0   704 – Lincoln Laboratory ETS, New Mexico MPS 82613
2003 08 01.35735 22 07 01.34 -03 11 20.1 19.0   704 – Lincoln Laboratory ETS, New Mexico MPS 82613
2003 08 01.36771 22 07 00.96 -03 11 21.9 18.8   704 – Lincoln Laboratory ETS, New Mexico MPS 82613
2003 08 01.37812 22 07 00.43 -03 11 20.6 19.1   704 – Lincoln Laboratory ETS, New Mexico MPS 82613
2003 08 01.53175 22 06 53.81 -03 11 22.3 19.3   608 – Haleakala-AMOS MPS 84921
2003 08 01.54223 22 06 53.33 -03 11 22.1 19.5   608 – Haleakala-AMOS MPS 84921
2003 08 01.55280 22 06 52.84 -03 11 21.5 19.2   608 – Haleakala-AMOS MPS 84921
2003 08 05.27801 22 04 06.55 -03 12 44.6 17.8   704 – Lincoln Laboratory ETS, New Mexico MPS 82613
2003 08 05.28974 22 04 06.02 -03 12 45.5 18.2   704 – Lincoln Laboratory ETS, New Mexico MPS 82613
2003 08 05.30185 22 04 05.40 -03 12 45.4 18.2   704 – Lincoln Laboratory ETS, New Mexico MPS 82613
2003 08 05.31446 22 04 04.83 -03 12 46.1 18.0   704 – Lincoln Laboratory ETS, New Mexico MPS 82613
2003 08 05.32550 22 04 04.35 -03 12 46.2 18.2   704 – Lincoln Laboratory ETS, New Mexico MPS 82613
2003 08 20.84541 21 51 00.20 -03 37 44.3 17.8 R 599 – Campo Imperatore-CINEOS MPS 82942
2003 08 20.86818 21 50 58.98 -03 37 47.6 17.8 R 599 – Campo Imperatore-CINEOS MPS 82942
2003 08 20.87957 21 50 58.37 -03 37 49.3 17.8 R 599 – Campo Imperatore-CINEOS MPS 82942
2003 08 24.26506 21 48 01.76 -03 46 32.6 18.2   704 – Lincoln Laboratory ETS, New Mexico MPS 83222
2003 08 24.27747 21 48 01.09 -03 46 34.9 18.6   704 – Lincoln Laboratory ETS, New Mexico MPS 83222
2003 08 24.29038 21 48 00.45 -03 46 37.1 18.3   704 – Lincoln Laboratory ETS, New Mexico MPS 83222
2003 08 24.30301 21 47 59.74 -03 46 39.1 18.5   704 – Lincoln Laboratory ETS, New Mexico MPS 83222
2003 08 24.31650 21 47 59.04 -03 46 41.1 18.6   704 – Lincoln Laboratory ETS, New Mexico MPS 83222
2003 08 28.26320 21 44 37.90 -03 57 55.1 18.2   704 – Lincoln Laboratory ETS, New Mexico MPS 83222
2003 08 28.27745 21 44 37.18 -03 57 57.2 18.2   704 – Lincoln Laboratory ETS, New Mexico MPS 83222
2003 08 28.30522 21 44 35.74 -03 58 01.8 18.5   704 – Lincoln Laboratory ETS, New Mexico MPS 83222
2003 09 02.24521 21 40 36.76 -04 13 10.0 18.3   704 – Lincoln Laboratory ETS, New Mexico MPS 83932
2003 09 02.25690 21 40 36.19 -04 13 12.6 18.9   704 – Lincoln Laboratory ETS, New Mexico MPS 83932
2003 09 02.26875 21 40 35.59 -04 13 14.3 18.7   704 – Lincoln Laboratory ETS, New Mexico MPS 83932
2003 09 02.28060 21 40 35.08 -04 13 16.4 18.9   704 – Lincoln Laboratory ETS, New Mexico MPS 83932
2003 09 02.29222 21 40 34.46 -04 13 18.7 19.0   704 – Lincoln Laboratory ETS, New Mexico MPS 83932
2003 09 14.45682 21 32 25.54 -04 51 41.8 19.7   608 – Haleakala-AMOS MPS 84921
2003 09 14.46742 21 32 25.17 -04 51 43.7 19.3   608 – Haleakala-AMOS MPS 84921
2003 09 14.47826 21 32 24.80 -04 51 46.0 19.8   608 – Haleakala-AMOS MPS 84921
2003 09 25.25162 21 27 54.21 -05 22 05.8 20.1   608 – Haleakala-AMOS MPS 85943
2003 09 25.26210 21 27 54.01 -05 22 07.9 20.1   608 – Haleakala-AMOS MPS 85943
